Location: Newark
(16.3678°N, 77.8722°E)
Time: 17:06:23
(UTC+00:00)

S-56A Canister/Altair - Pass Details

Date: 18 December 2019
Orbit: 634 x 2498 km, 38.9° (Epoch: 28 January)

Event Time Altitude Azimuth Distance (km) Brightness Sun altitude
Rises 05:48:11 0° 303° (WNW) 5,744 11.7 47.9°
Reaches altitude 10° 05:52:38 10° 314° (NW) 4,930 11.4 48.3°
Maximum altitude 06:04:43 30° 10° (N) 3,773 11.0 49.1°
Drops below altitude 10° 06:16:49 10° 65° (ENE) 4,951 11.7 49.7°
Sets 06:21:17 0° 76° (ENE) 5,773 12.0 49.8°
